[[{"header":{"parameterUnit":"m.s-1","parameterCategory":1,"la1":30.2991,"la2":30.254,"lo1":-89.0895,"lo2":-89.0444,"dy":0.0017,"dx":0.0017,"nx":28,"ny":28,"refTime":"2024-05-22T03:00:00:Z","depth":0,"parameterNumber":2,"parameterNumberName":"U-component_of_WINDS"},"data":[0,0,0,0,0,0,0,0,0,0,0,0,0,0,0,0,0,0,0,0,0,0,0,0,0,0,0,0,0,0,0,0,0,0,0,0,0,0,0,0,0,0,0,0,0,0,0,0,0,0,0,0,0,0,0,0,0,0,-2.5438,-2.5438,0,-2.5496,-2.5497,-2.5497,-2.5484,-2.5483,-2.5482,-2.5481,-2.5542,-2.5544,-2.5547,0,0,0,0,0,0,0,0,0,0,0,0,0,-2.5318,-2.532,-2.5438,-2.5439,-2.5439,-2.5496,-2.5497,-2.5498,-2.5484,-2.5483,-2.5482,-2.5481,-2.5541,-2.5544,-2.5547,0,0,0,0,0,0,0,0,0,0,0,0,0,-2.5372,-2.5321,-2.5438,-2.544,-2.544,-2.5496,-2.5497,-2.5498,-2.5485,-2.5483,-2.5481,-2.548,-2.554,-2.5544,-2.5548,-2.5605,0,0,-2.556,-2.5561,0,0,0,0,0,0,0,0,-2.5369,-2.5377,-2.5439,-2.5439,-2.544,-2.5481,-2.5477,-2.5534,-2.5485,-2.5468,-2.5481,-2.5479,-2.5523,-2.5528,-2.5543,-2.5608,-2.5611,-2.556,-2.5562,-2.5564,-2.5565,0,0,0,0,0,0,0,-2.5366,-2.5374,-2.5461,-2.5439,-2.5441,-2.5438,-2.5444,-2.5487,-2.5504,-2.5469,-2.5468,-2.5475,-2.5523,-2.5539,-2.5544,-2.5612,-2.556,-2.5564,-2.5566,-2.5568,-2.5729,-2.5731,0,0,0,0,0,0,-2.5361,-2.5371,-2.5459,-2.5463,-2.54,-2.5442,-2.5448,-2.547,-2.5504,-2.5507,-2.5477,-2.5475,-2.5533,-2.554,-2.5546,-2.5617,-2.5564,-2.5568,-2.557,-2.5727,-2.5729,-2.5731,0,0,0,0,0,0,-2.5358,-2.5369,-2.5457,-2.5417,-2.5428,-2.5446,-2.547,-2.5472,-2.5488,-2.5509,-2.5512,-2.549,-2.5532,-2.5541,-2.5591,-2.5618,-2.557,-2.5573,-2.5725,-2.5728,-2.573,-2.5757,0,0,0,0,0,0,-2.5355,-2.5368,-2.5389,-2.5417,-2.543,-2.55,-2.5471,-2.5474,-2.5494,-2.5492,-2.5522,-2.5526,-2.5531,-2.5585,-2.5595,-2.5623,-2.5576,-2.5722,-2.5726,-2.573,-2.5754,-2.576,-2.5766,0,0,0,0,0,-2.5351,-2.5394,-2.539,-2.5401,-2.5457,-2.5501,-2.5508,-2.5514,-2.5497,-2.5519,-2.5533,-2.5525,-2.5614,-2.559,-2.5601,-2.5631,-2.5721,-2.5725,-2.5729,-2.5751,-2.5759,-2.5766,0,0,0,0,0,0,-2.5368,-2.5398,-2.5394,-2.5447,-2.5472,-2.5499,-2.5526,-2.5522,-2.5552,-2.5549,-2.5555,-2.5562,-2.5613,-2.5627,-2.56,-2.569,-2.5665,-2.5672,-2.5678,-2.5686,-2.5692,-2.5687,-2.558,0,0,0,0,0,-2.5379,-2.5411,-2.5436,-2.5481,-2.5494,-2.5508,-2.5528,-2.553,-2.5556,-2.5566,-2.5584,-2.5609,-2.5644,-2.5666,-2.5698,-2.5757,-2.5763,-2.5783,-2.5789,-2.5794,-2.5799,-2.5832,-2.5841,-2.5746,-2.5746,-2.5745,0,0,-2.54,-2.542,-2.544,-2.5485,-2.5504,-2.5539,-2.5517,-2.5554,-2.558,-2.5572,-2.562,-2.5635,-2.5664,-2.5719,-2.5744,-2.5732,-2.5828,-2.5799,-2.5803,-2.5806,-2.5838,-2.5847,-2.5855,-2.5748,-2.5748,-2.5747,0,0,-2.5456,-2.5475,-2.5515,-2.5535,-2.5564,-2.5574,-2.5584,-2.5612,-2.5621,-2.567,-2.5665,-2.5697,-2.5755,-2.5777,-2.5795,-2.5863,-2.5857,-2.5874,-2.5905,-2.5938,-2.5945,-2.5952,-2.5976,-2.5985,-2.5879,-2.5879,-2.5879,0,-2.5478,-2.553,-2.5536,-2.5574,-2.5595,-2.5589,-2.5631,-2.565,-2.5689,-2.5704,-2.569,-2.5765,-2.5784,-2.5844,-2.5861,-2.5876,-2.5888,-2.5869,-2.5944,-2.595,-2.5957,-2.598,-2.5989,-2.5881,-2.5881,-2.5881,-2.5881,0,-2.5557,-2.5593,-2.5622,-2.566,-2.5684,-2.5723,-2.5736,-2.576,-2.5761,-2.5773,-2.5824,-2.5848,-2.5885,-2.59,-2.5901,-2.5961,-2.5953,-2.5942,-2.5917,-2.5968,-2.599,-2.5999,-2.5884,-2.5883,-2.5882,-2.5882,0,0,-2.5623,-2.5665,-2.5676,-2.5694,-2.5727,-2.5756,-2.5796,-2.5833,-2.5854,-2.5882,-2.5916,-2.5967,-2.5957,-2.5979,-2.5983,-2.6011,-2.6064,-2.5997,-2.5997,-2.6008,-2.6132,-2.614,-2.615,-2.6061,-2.6063,-2.6064,-2.613,0,-2.5682,-2.5752,-2.576,-2.5823,-2.5857,-2.5854,-2.589,-2.5915,-2.5928,-2.596,-2.5974,-2.601,-2.5994,-2.6007,-2.6035,-2.6052,-2.6089,-2.6047,-2.6094,-2.6095,-2.6085,-2.6162,-2.617,-2.623,-2.6139,-2.614,-2.6141,0,-2.576,-2.579,-2.5857,-2.5887,-2.5902,-2.5933,-2.5969,-2.5999,-2.6028,-2.6036,-2.6061,-2.6062,-2.6105,-2.608,-2.614,-2.6112,-2.6132,-2.6143,-2.6146,-2.6149,-2.612,-2.6167,-2.625,-2.6259,-2.6155,-2.6154,-2.6153,0,-2.5801,-2.5859,-2.5907,-2.5922,-2.5959,-2.5981,-2.5998,-2.6026,-2.6048,-2.608,-2.6094,-2.6131,-2.6151,-2.618,-2.6191,-2.6172,-2.6251,-2.6227,-2.6259,-2.6259,-2.6274,-2.6273,-2.6361,-2.6289,-2.6289,-2.6288,-2.6288,0,-2.5866,-2.5906,-2.5926,-2.5955,-2.6002,-2.6011,-2.6057,-2.6073,-2.6098,-2.6131,-2.6131,-2.6163,-2.6176,-2.621,-2.622,-2.6269,-2.6278,-2.6286,-2.6288,-2.6285,-2.6284,-2.6297,-2.6293,-2.6291,-2.629,-2.629,-2.6289,0,-2.5919,-2.5934,-2.5985,-2.6017,-2.6026,-2.6058,-2.6086,-2.6115,-2.6128,-2.617,-2.6181,-2.6202,-2.6242,-2.6257,-2.6306,-2.6313,-2.6369,-2.6368,-2.6359,-2.6359,-2.639,-2.6387,-2.6489,-2.6503,-2.6422,-2.6423,-2.6424,0,-2.5958,-2.599,-2.6025,-2.6047,-2.6064,-2.61,-2.6123,-2.6135,-2.6159,-2.6196,-2.6221,-2.6261,-2.6294,-2.6358,-2.6379,-2.6417,-2.6416,-2.6449,-2.6422,-2.6419,-2.6416,-2.6414,-2.6417,-2.6454,-2.6455,-2.6455,-2.6456,0,-2.6027,-2.6033,-2.6066,-2.6103,-2.613,-2.616,-2.6188,-2.6207,-2.6223,-2.6251,-2.6292,-2.6317,-2.6368,-2.6408,-2.6447,-2.6465,-2.6464,-2.6465,-2.6474,-2.6471,-2.6465,-2.6469,-2.6372,-2.6462,-2.6461,-2.6461,-2.6461,-2.646,-2.6074,-2.6103,-2.6132,-2.617,-2.6193,-2.622,-2.6249,-2.6267,-2.6301,-2.6342,-2.6348,-2.6392,-2.6423,-2.6476,-2.6496,-2.6532,-2.6523,-2.6537,-2.654,-2.6543,-2.6545,-2.646,-2.6539,-2.6539,-2.6539,-2.6539,-2.6539,0,-2.6143,-2.6162,-2.6197,-2.6237,-2.6267,-2.6263,-2.6295,-2.6321,-2.636,-2.6388,-2.6421,-2.6469,-2.6509,-2.6533,-2.6573,-2.6597,-2.6598,-2.6607,-2.6605,-2.6609,-2.6551,-2.6538,-2.6606,-2.6606,-2.6606,-2.6606,-2.6606,-2.6606,-2.6182,-2.623,-2.624,-2.63,-2.6319,-2.6363,-2.6381,-2.6407,-2.643,-2.6484,-2.6516,-2.6532,-2.656,-2.6603,-2.6639,-2.6646,-2.666,-2.6671,-2.6676,-2.662,-2.6613,-2.6607,-2.6595,-2.6674,-2.6674,-2.6732,-2.6732,-2.6733]},{"header":{"parameterUnit":"m.s-1","parameterCategory":1,"la1":30.2991,"la2":30.254,"lo1":-89.0895,"lo2":-89.0444,"dy":0.0017,"dx":0.0017,"nx":28,"ny":28,"refTime":"2024-05-22T03:00:00:Z","depth":0,"parameterNumber":3,"parameterNumberName":"V-component_of_WINDS"},"data":[0,0,0,0,0,0,0,0,0,0,0,0,0,0,0,0,0,0,0,0,0,0,0,0,0,0,0,0,0,0,0,0,0,0,0,0,0,0,0,0,0,0,0,0,0,0,0,0,0,0,0,0,0,0,0,0,0,0,3.0057,3.0056,0,2.9973,2.9972,2.9971,2.9942,2.9942,2.9942,2.9943,2.9849,2.9846,2.9843,0,0,0,0,0,0,0,0,0,0,0,0,0,3.0188,3.0186,3.0057,3.0056,3.0055,2.9973,2.9972,2.9971,2.9942,2.9942,2.9942,2.9943,2.9849,2.9846,2.9843,0,0,0,0,0,0,0,0,0,0,0,0,0,3.012,3.0185,3.0058,3.0031,3.0028,2.9973,2.9972,2.997,2.9942,2.9942,2.9943,2.9943,2.9851,2.9846,2.9842,2.9805,0,0,2.9829,2.9827,0,0,0,0,0,0,0,0,3.0124,3.0115,3.0036,3.0033,3.0029,2.9969,2.9983,2.9915,2.9941,2.9974,2.9943,2.9943,2.9887,2.988,2.9863,2.9801,2.9797,2.9829,2.9826,2.9824,2.9823,0,0,0,0,0,0,0,3.0128,3.0118,3.0024,3.0035,3.0031,3.0021,3.0012,2.997,2.9928,2.9971,2.9969,2.996,2.9886,2.9867,2.986,2.9795,2.9829,2.9825,2.9823,2.9821,2.9699,2.9698,0,0,0,0,0,0,3.0139,3.0123,3.0026,3.0021,3.0079,3.0019,3.0009,2.9987,2.9929,2.9921,2.9959,2.9959,2.9874,2.9865,2.9857,2.981,2.9824,2.982,2.9818,2.97,2.9699,2.9698,0,0,0,0,0,0,3.0141,3.013,3.003,3.0071,3.0058,3.0016,2.9992,2.9985,2.9967,2.992,2.9912,2.9949,2.9874,2.9863,2.9819,2.9807,2.9819,2.9815,2.97,2.9699,2.9698,2.9716,0,0,0,0,0,0,3.0145,3.0132,3.0118,3.0071,3.0056,2.9995,2.9992,2.9983,2.9961,2.9959,2.9908,2.99,2.9874,2.9826,2.9815,2.9801,2.9811,2.9701,2.97,2.9699,2.9717,2.9716,2.9715,0,0,0,0,0,3.015,3.0125,3.0118,3.0106,3.0039,2.9994,2.9985,2.9958,2.996,2.9945,2.9915,2.9901,2.981,2.9821,2.9809,2.9794,2.9702,2.97,2.9699,2.9717,2.9716,2.9716,0,0,0,0,0,0,3.0169,3.0118,3.011,3.0069,3.0037,2.999,2.9971,2.9958,2.9922,2.9922,2.9888,2.9876,2.9835,2.9809,2.9823,2.9755,2.9755,2.9751,2.9773,2.9772,2.9771,2.9778,2.9808,0,0,0,0,0,3.0169,3.0139,3.0096,3.0064,3.0048,3.0013,2.9992,2.9974,2.9938,2.9923,2.989,2.9854,2.9817,2.9793,2.9756,2.9713,2.9701,2.9696,2.9696,2.9696,2.9692,2.9667,2.9665,2.9693,2.9693,2.9693,0,0,3.0167,3.0136,3.0119,3.0067,3.004,3.0008,3.0001,2.9967,2.9943,2.9917,2.9875,2.9849,2.9806,2.9762,2.9741,2.974,2.9682,2.9694,2.9694,2.969,2.9666,2.9663,2.9661,2.9692,2.9692,2.9692,0,0,3.0148,3.0122,3.0093,3.0067,3.0027,3.0003,2.9997,2.9952,2.9935,2.9892,2.9872,2.9842,2.9779,2.9749,2.9726,2.9697,2.9683,2.9686,2.9683,2.9659,2.9657,2.9655,2.9645,2.9641,2.9683,2.9683,2.9683,0,3.0151,3.0105,3.0079,3.0048,3.0025,3.0004,2.9973,2.9948,2.9897,2.9881,2.9881,2.9802,2.9771,2.9721,2.9715,2.9696,2.9686,2.9691,2.966,2.9658,2.9655,2.9645,2.9641,2.9684,2.9684,2.9684,2.9684,0,3.011,3.0078,3.0059,3.0014,2.9989,2.9957,2.9926,2.9903,2.9888,2.9864,2.982,2.9783,2.9739,2.9726,2.9709,2.9673,2.9673,2.9667,2.9666,2.9654,2.9643,2.9639,2.9685,2.9684,2.9684,2.9684,0,0,3.0099,3.0042,3.0035,3.0015,2.9969,2.9943,2.9911,2.987,2.9852,2.9817,2.9788,2.9736,2.9731,2.9704,2.9684,2.9664,2.9644,2.966,2.9658,2.9658,2.9601,2.9606,2.9602,2.9634,2.9634,2.9633,2.9605,0,3.0074,3.0018,2.9995,2.9949,2.9919,2.9899,2.987,2.9838,2.9815,2.9785,2.9758,2.9722,2.9718,2.9702,2.9681,2.9651,2.9632,2.9652,2.9605,2.9604,2.9617,2.9596,2.9601,2.9576,2.96,2.96,2.9599,0,3.0037,3.0006,2.9958,2.9918,2.9904,2.9879,2.9841,2.9812,2.9775,2.976,2.9732,2.9713,2.9677,2.968,2.9628,2.9643,2.9622,2.9604,2.9603,2.9597,2.9601,2.9589,2.9568,2.9564,2.9593,2.9593,2.9594,0,3.0035,2.998,2.9944,2.9927,2.9879,2.9862,2.9841,2.9805,2.9782,2.9748,2.9733,2.9693,2.9672,2.9641,2.9612,2.9616,2.9563,2.9563,2.9548,2.9548,2.9536,2.9538,2.9511,2.9524,2.9524,2.9524,2.9524,0,3.0009,2.998,2.9943,2.9921,2.9887,2.9861,2.9828,2.9805,2.9773,2.9745,2.9724,2.9697,2.9661,2.9629,2.9606,2.9566,2.9556,2.9542,2.9536,2.9544,2.9545,2.9529,2.953,2.9523,2.9523,2.9524,2.9524,0,3.0,2.9974,2.9934,2.9892,2.9881,2.9859,2.9822,2.9799,2.9776,2.9741,2.973,2.9693,2.9655,2.9623,2.9572,2.9556,2.9515,2.9508,2.9529,2.9525,2.9512,2.9514,2.9473,2.9466,2.9485,2.9485,2.9485,0,2.9985,2.9963,2.992,2.9902,2.9881,2.9851,2.9828,2.9801,2.9778,2.9735,2.9717,2.9678,2.9645,2.9585,2.9551,2.9512,2.9504,2.9493,2.9498,2.9506,2.9503,2.9505,2.9503,2.9492,2.9492,2.9492,2.9492,0,2.9962,2.9951,2.9921,2.9887,2.9862,2.9832,2.9803,2.9788,2.9754,2.9729,2.9692,2.9667,2.9616,2.9577,2.9535,2.951,2.9495,2.9491,2.9485,2.9492,2.9505,2.9498,2.9527,2.9491,2.9492,2.9492,2.9492,2.9492,2.9949,2.9929,2.9896,2.9864,2.9839,2.9812,2.9789,2.9764,2.9733,2.9692,2.9677,2.9638,2.9601,2.9543,2.9519,2.9487,2.9485,2.9477,2.9474,2.9473,2.9474,2.9511,2.9479,2.9479,2.9479,2.9479,2.9479,0,2.9925,2.9903,2.9874,2.9835,2.9809,2.98,2.9767,2.9745,2.9712,2.9681,2.965,2.9606,2.9569,2.9534,2.9494,2.9475,2.9467,2.9465,2.9466,2.9461,2.9478,2.9487,2.9473,2.9473,2.9473,2.9473,2.9473,2.9473,2.9909,2.9875,2.986,2.9812,2.979,2.9754,2.9736,2.9711,2.9686,2.9639,2.9609,2.9587,2.9554,2.9512,2.9476,2.9467,2.9453,2.9453,2.9442,2.9458,2.9459,2.946,2.9468,2.945,2.945,2.9427,2.9427,2.9426]}]]